Tracking 31027 objects as of 19-Jul-2025
HD Live streaming from Space Station
objects crossing your sky now

NINGXIA-1 2

Track NINGXIA-1 2 now!
10-day predictions


NORAD ID: 44780
Int'l Code: 2019-076B
Perigee: 889.5 km
Apogee: 898.9 km
Inclination: 45.0 °
Period: 102.7 minutes
Semi major axis: 7265 km
RCS: Unknown
Launch date: November 13, 2019
Source: People's Republic of China (PRC)
Launch site: Taiyaun Space Center, China (TSC)
Your satellite tracking list
SES-6
Track 1 satellite(s)




NASA's NSSDC Master Catalog

Two Line Element Set (TLE):
1 44780U 19076B   25199.81470775 -.00000067  00000-0  41177-4 0  9999
2 44780  45.0076 229.8357 0006528 359.8418   0.2413 14.01946406291076
Source of the keplerian elements: AFSPC